sat.trackr.live / text

‹ back to catalog

ONEWEB-0290

NORAD 49080 · 2021-075F

PAYLOAD ACTIVE UNKNOWN

§ Identity

Operator
Country
UK
Launch date
2021-08-21
Launch site
TYMSC
Launch vehicle
Mass (kg)
RCS (m²)

Purposes: comms

External: N2YO · Heavens-Above · Gunter

§ Orbital elements

Epoch: 2026-09-20T00:32:44.499264Z

Period
109.29 min
Inclination
87.9206°
Eccentricity
0.0001376
Mean motion
13.17650565 rev/d
Perigee alt
1,192.7 km
Apogee alt
1,194.7 km
Semi-major
7,571.8 km
B*
4.0752e-5
RAAN
347.0298°
Arg perigee
97.2528°
Mean anomaly
262.8759°
Rev number
24,610

§ Raw data

ONEWEB-02901 49080U 21075F   26263.02273726  .00000029  00000+0  40752-4 0  99962 49080  87.9206 347.0298 0001376  97.2528 262.8759 13.17650565246109

JSON: /api/v1/satellites/49080 · /tle

For live sub-satellite position, see the globe view (requires WebGL).

§ Visibility from observer

Set your observer location to see the next 7 days of passes ≥ 10°. The values pass through the URL so the page stays shareable.

No JS? Fill the form by hand. The geolocation button needs JavaScript.